{"data":{"norad_id":58042,"intl_designator":"2023-156Q","name":"STARLINK-30563","alt_names":[],"object_type":"PAYLOAD","status":"ACTIVE","operator":null,"country":"US","launch_date":"2023-10-09","launch_site_code":"AFWTR","launch_vehicle":null,"mission":null,"orbit_class":"UNKNOWN","rcs_meters":null,"size_class":null,"mass_kg":null,"dimensions":null,"purposes":["comms"],"wikipedia_slug":null,"has_3d_model":false,"image_url":null,"decayed_at":null,"tle_current":{"epoch":"2026-09-20T08:13:07.865760Z","epoch_age_seconds":151310,"freshness":"FRESH","line1":"1 58042U 23156Q   26263.34245215  .00001020  00000+0  41337-4 0  9995","line2":"2 58042  53.1615 250.1370 0000978  97.7682 262.3432 15.34389691166175","mean_motion":15.34389691,"eccentricity":9.78e-5,"inclination_deg":53.1615,"raan_deg":250.137,"arg_perigee_deg":97.7682,"mean_anomaly_deg":262.3432,"bstar":4.1337e-5,"rev_number":16617,"period_min":93.848388609905,"perigee_km":462.06484372703,"apogee_km":463.40291807133,"semimajor_km":6840.8708808992,"source":"CELESTRAK","updated_at":"2026-09-21T09:00:33.760577Z"}}}